Regional Weather Roundup
Issued by NWS Sterling, VA

Home | Current Version | Previous Version | Graphics & Text | Print | Product List | Glossary On
Versions: 1 2 3 4 5 6 7 8 9 10 11 12 13 14 15 16 17 18 19 20 21 22 23 24 25 26 27 28 29 30 31 32 33 34 35 36 37 38 39 40 41 42 43 44 45 46 47 48 49 50
447
ASUS41 KLWX 301811
RWRLWX

REGIONAL WEATHER ROUNDUP
NATIONAL WEATHER SERVICE BALTIMORE MD/WASHINGTON DC
200 PM EDT SUN APR 30 2017

Note: "FAIR" indicates few or no clouds below 12,000 feet
with no significant weather and/or obstructions to visibility.
 TC=TEMPERATURE CELSIUS

 * =Non NWS site. Station does not report precipitation (e.g. rain,
    snow, etc.), thunder, or fog.

DCZ001-MDZ009-015-VAZ040>042-051-053>054-301900-
WASHINGTON METRO

CITY           SKY/WX    TMP DP  RH WIND       PRES   REMARKS
WASHINGTON NAT PTSUNNY   84  69  60 S13       30.05F
DULLES         MOSUNNY   80  69  69 NE7       30.05F
ANDREWS AFB    SUNNY     83  72  69 E6        30.06F
FT BELVOIR     SUNNY     86  68  54 S12       30.05F
QUANTICO       PTSUNNY   80  72  76 S13       30.07F
COLLEGE PARK*  SUNNY     80  68  66 NE6       30.06F
LEESBURG*      MOSUNNY   82  72  69 NE5       30.07F
MANASSAS*        N/A     85  69  58 S14       30.05F

$$

MDZ006>007-011-014-301900-
BALTIMORE METRO

CITY           SKY/WX    TMP DP  RH WIND       PRES   REMARKS
BWI AIRPORT    PTSUNNY   76  65  68 E10       30.09F
MD SCIENCE CTR   N/A     77  61  57 MISG      30.10F
MARTIN STATE   PTSUNNY   75  63  64 E6        30.12F
ANNAPOLIS      PTSUNNY   78  67  68 E10       30.08F
FORT MEADE*    SUNNY     77  64  65 E7        30.10F

$$

MDZ012-015-019>023-301900-
MARYLAND EASTERN SHORE

CITY           SKY/WX    TMP DP  RH WIND       PRES   REMARKS
OCEAN CITY     CLOUDY    67  63  87 E8        30.13F FOG
SALISBURY      SUNNY     84  69  60 W9        30.10S
BAY BRIDGE AP* CLOUDY    79  66  65 E10       30.08F
CAMBRIDGE*     PTSUNNY   82  72  69 S8G18     30.09S
EASTON*        PTSUNNY   81  66  61 E13G20    30.13S

$$

MDZ017>025-301900-
SOUTHERN MARYLAND

CITY           SKY/WX    TMP DP  RH WIND       PRES   REMARKS
PATUXENT RIVER PTSUNNY   77  71  82 SE14      30.09S
ST INIGOES     MOSUNNY   85  68  56 S7        30.08F
LEONARDTOWN*   PTSUNNY   82  66  57 S9G16     30.10F

$$

MDZ003>005-301900-
NORTH CENTRAL MARYLAND

CITY           SKY/WX    TMP DP  RH WIND       PRES   REMARKS
FREDERICK*     PTSUNNY   81  72  74 NE3       30.11F
HAGERSTOWN APT PTSUNNY   78  66  66 S6        30.07F
WESTMINSTER*   PTSUNNY   79  64  61 S8        30.10F

$$

MDZ501>502-301900-
WESTERN MARYLAND

CITY           SKY/WX    TMP DP  RH WIND       PRES   REMARKS
OAKLAND*         N/A     79  54  41 SW10G16   30.11F
CUMBERLAND*    SUNNY     82  66  57 SE7       30.07F

$$

VAZ025>031-301900-
SHENANDOAH VALLEY

CITY           SKY/WX    TMP DP  RH WIND       PRES   REMARKS
WINCHESTER*    MOSUNNY   81  68  65 E6        30.05F
FRONT ROYAL*   SUNNY     86  70  58 SE3       30.03F HX  90
LURAY*         SUNNY     88  63  42 S14       30.04F
NEW MARKET*    MOSUNNY   88  63  43 SW12G20   30.03S
STAUNTON*      MOSUNNY   83  63  49 SW17      30.10F
WAYNESBORO*    CLOUDY    80  66  62 S8G20     30.11S

$$

WVZ021-048>050-054>055-301900-
EASTERN WEST VIRGINIA PANHANDLE

CITY           SKY/WX    TMP DP  RH WIND       PRES   REMARKS
MARTINSBURG    MOSUNNY   77  66  68 CALM      30.06F
PETERSBURG*    SUNNY     88  67  50 E7        30.01F HX  91

$$

VAZ036>039-050-301900-
CENTRAL FOOTHILLS

CITY           SKY/WX    TMP DP  RH WIND       PRES   REMARKS
CHARLOTTESVILL MOSUNNY   86  68  54 S18G28    30.08F
CULPEPER*      MOSUNNY   85  70  60 S13       30.06F HX  90
ORANGE*        MOSUNNY   82  68  61 SW12G24   30.08F
GORDONSVILLE*  MOSUNNY   83  69  62 SW21      30.08S
WARRENTON*     MOSUNNY   87  66  49 S12G20    30.06F

$$

VAZ055>057-301900-
NORTH AND CENTRAL PIEDMONT

CITY           SKY/WX    TMP DP  RH WIND       PRES   REMARKS
FREDERICKSBRG* MOSUNNY   85  70  59 SW15      30.07F HX  90
STAFFORD*      MOSUNNY   83  70  63 SW9       30.11F

$$

NCZ024-NYZ072-PAZ021-071-VAZ022-071-301900-
OTHER REGIONAL OBSERVATIONS

CITY           SKY/WX    TMP DP  RH WIND       PRES   REMARKS
NEW YORK CITY  CLOUDY    59  40  49 S12       30.26F
PHILADELPHIA   PTSUNNY   72  47  40 E12       30.15F
PITTSBURGH     PTSUNNY   84  60  44 SW18G26   29.98F
ROANOKE        MOSUNNY   82  59  45 S15G23    30.14F
RICHMOND       MOSUNNY   86  65  49 SW16G26   30.11F
RALEIGH        PTSUNNY   81  66  60 SW14      30.18F

$$

ANZ530>537-301900-
MARINE OBSERVATIONS

STATION/POSITION TIME  TEMP    WIND        PRES
                       AIR SEA DIR/SP/G
                 (UTC) (F)     (DEG/KT/KT) (MB)
THOMAS PT LIGHT  1800   70 63   10/ 12/ 13   N/A
BALT KEY BRIDGE  1748   72      80/  9/ 10 1019.1F
COVE POINT       1748   68     180/ 12/ 13 1019.6S
LEWISETTA        1748   83 74  240/  8/ 12 1018.7F
SOLOMONS ISLAND  1736   74 67  120/ 11/ 15   N/A
PINEY POINT      1748          170/  5/  8   N/A

$$





USA.gov is the U.S. government's official web portal to all federal, state and local government web resources and services.